Location: Fayetteville
(35.0530°N, 78.8790°W)
Time: 20:26:52
(UTC-04:00)

Hubble Space Telescope - Pass Details

Date: 24 June 2019
Orbit: 536 x 540 km, 28.5° (Epoch: 22 July)

Event Time Altitude Azimuth Distance (km) Brightness Sun altitude
Rises 22:10:43 0° 230° (SW) 2,672 4.4 -16.6°
Reaches altitude 10° 22:13:24 10° 213° (SSW) 1,782 3.3 -17.0°
Enters shadow 22:14:47 16° 197° (SSW) 1,433 2.6 -17.2°
